KF3BH Weather Reports


Display with metric or nautical units.
time (UTC)temp
F
wind
direction
speed
MPH
gust
MPH
rain 1hr
in
rain 24hr
in
rain mn
in
humidity
%
barometer
mb
20260504050025 47 179 1.0 2.0 0.00 0.00 0.00 57 1013.9
20260504043025 48 204 2.0 5.0 0.00 0.00 0.00 52 1013.9
20260504042025 49 208 2.0 3.0 0.00 0.00 0.00 52 1013.7
20260504041024 49 229 2.0 6.0 0.00 0.00 0.00 50 1013.7
20260504035025 49 223 2.0 6.0 0.00 0.00 0.00 50 1013.6
20260504034025 49 205 2.0 6.0 0.00 0.00 0.00 50 1013.5
20260504033025 50 214 2.0 6.0 0.00 0.00 0.00 49 1013.5
20260504032025 50 222 1.0 5.0 0.00 0.00 0.00 49 1013.5
20260504031025 50 238 1.0 6.0 0.00 0.00 0.00 49 1013.5
20260504024025 51 221 2.0 7.0 0.00 0.00 0.00 48 1013.4
20260504023025 51 246 3.0 8.0 0.00 0.00 0.00 48 1013.5
20260504022025 51 199 2.0 8.0 0.00 0.00 0.00 47 1013.6
20260504021025 52 199 3.0 8.0 0.00 0.00 0.00 46 1013.6
20260504015025 52 213 3.0 6.0 0.00 0.00 0.00 45 1013.5
20260504014025 52 233 1.0 6.0 0.00 0.00 0.00 45 1013.4
20260504013025 52 208 1.0 9.0 0.00 0.00 0.00 45 1013.3
20260504012025 52 214 2.0 6.0 0.00 0.00 0.00 45 1013.3
20260504011025 52 183 1.0 6.0 0.00 0.00 0.00 44 1013.2
20260504010024 52 235 2.0 5.0 0.00 0.00 0.00 44 1013.1
20260504005025 53 197 3.0 9.0 0.00 0.00 0.00 44 1013.0
20260504004025 53 207 1.0 7.0 0.00 0.00 0.00 43 1012.9
20260504002025 54 264 2.0 8.0 0.00 0.00 0.00 41 1012.7
20260504001025 55 264 2.0 10.0 0.00 0.00 0.00 40 1012.7
20260504000024 55 272 1.0 9.0 0.00 0.00 0.00 40 1012.5
20260503235025 56 317 2.0 8.0 0.00 0.00 0.00 39 1012.5
20260503234027 56 211 2.0 8.0 0.00 0.00 0.00 38 1012.4
20260503233025 56 283 3.0 8.0 0.00 0.00 0.00 38 1012.3
20260503232025 57 226 3.0 10.0 0.00 0.00 0.00 37 1012.3
20260503231025 57 220 4.0 10.0 0.00 0.00 0.00 36 1012.3
20260503230025 58 272 1.0 10.0 0.00 0.00 0.00 37 1012.3
20260503225025 57 272 3.0 10.0 0.00 0.00 0.00 37 1012.3
20260503223025 58 272 5.0 17.0 0.00 0.00 0.00 34 1012.3
20260503221025 59 285 7.0 16.0 0.00 0.00 0.00 33 1012.3
20260503220024 59 311 5.0 12.0 0.00 0.00 0.00 35 1012.3
20260503214025 58 258 4.0 12.0 0.00 0.00 0.00 35 1012.3
20260503213025 59 256 3.0 15.0 0.00 0.00 0.00 33 1012.2
20260503212025 59 333 5.0 18.0 0.00 0.00 0.00 33 1012.1
20260503211025 58 313 5.0 13.0 0.00 0.00 0.00 34 1012.1
20260503210024 59 316 7.0 16.0 0.00 0.00 0.00 34 1012.2
20260503205025 59 289 3.0 12.0 0.00 0.00 0.00 34 1012.1
20260503204025 59 308 9.0 16.0 0.00 0.00 0.00 35 1012.1
20260503202025 58 340 7.0 16.0 0.00 0.00 0.00 33 1012.3
20260503201024 59 224 3.0 12.0 0.00 0.00 0.00 35 1012.2
20260503200025 59 289 7.0 12.0 0.00 0.00 0.00 34 1012.4
20260503195025 57 210 3.0 12.0 0.00 0.00 0.00 34 1012.6
20260503194025 57 203 3.0 13.0 0.00 0.00 0.00 35 1012.9
20260503193026 56 322 5.0 16.0 0.00 0.00 0.00 33 1012.9
20260503192025 57 340 5.0 14.0 0.00 0.00 0.00 33 1013.0
20260503191025 57 270 4.0 16.0 0.00 0.00 0.00 34 1013.1
20260503184025 56 296 6.0 17.0 0.00 0.00 0.00 36 1013.4
20260503183025 56 334 8.0 20.0 0.00 0.00 0.00 35 1013.6
20260503182025 55 297 5.0 16.0 0.00 0.00 0.00 34 1013.6
20260503181025 54 354 7.0 17.0 0.00 0.00 0.00 36 1013.7
20260503180025 53 310 7.0 20.0 0.00 0.00 0.00 35 1013.8
20260503175025 54 339 5.0 16.0 0.00 0.00 0.00 37 1014.0
20260503174025 55 339 6.0 17.0 0.00 0.00 0.00 37 1014.1
20260503173025 53 303 3.0 12.0 0.00 0.00 0.00 41 1014.1
20260503172025 52 291 7.0 15.0 0.00 0.00 0.00 38 1014.3
20260503171025 53 299 5.0 13.0 0.00 0.00 0.00 39 1014.3
20260503131025 43 4 5.0 13.0 0.00 0.00 0.00 60 1015.8
20260503081025 39 320 0.0 5.0 0.00 0.00 0.00 68 1013.8
20260503072025 40 344 1.0 3.0 0.00 0.02 0.00 69 1013.6
20260503071025 40 11 2.0 9.0 0.00 0.04 0.00 68 1013.6